Theta_e
330 332 334 335 330 327 331 344 344 346 345 344 343 341 339 339 340 342 335 331 324 324 325 327 326 323 324 323 323 324 324 325 325 325 326 326 327 326 326 326 326 326 325 325 325 324 325 326 326
327 331 334 333 330 332 332 335 345 345 343 343 343 340 343 344 346 344 340 339 326 324 324 324 324 323 323 324 324 325 325 326 328 329 331 331 332 332 332 331 331 330 328 327 326 326 326 325 325
327 331 334 327 328 332 336 344 344 343 344 346 343 342 342 344 345 343 342 341 328 324 325 325 324 324 324 324 325 326 327 329 331 332 333 334 334 334 334 334 334 334 333 331 329 328 326 326 326
331 333 333 330 334 332 339 343 344 344 345 346 346 346 345 343 344 344 342 340 333 327 325 325 325 325 325 325 326 328 330 331 332 332 332 331 331 330 330 333 338 335 332 332 333 332 331 329 327
326 331 326 329 333 332 333 344 344 341 341 345 345 345 345 342 343 343 344 344 344 342 334 326 325 325 326 327 328 331 333 332 331 332 335 337 338 339 338 336 340 342 340 339 336 337 334 331 329
325 327 324 326 331 331 332 344 340 339 342 343 344 344 344 344 344 344 341 338 336 339 333 330 330 329 330 333 334 332 332 335 336 337 335 334 335 338 337 336 337 340 337 336 334 337 337 334 329
322 323 327 330 332 332 334 340 339 339 341 343 342 342 345 344 345 345 341 334 331 332 333 334 333 333 333 331 332 335 335 332 328 323 328 331 330 335 336 334 337 338 335 336 336 336 336 337 336
325 325 333 331 331 333 333 339 340 337 338 338 337 343 344 345 345 346 345 339 338 339 341 341 335 336 334 335 339 339 335 331 330 326 319 326 326 325 327 331 333 335 333 332 333 334 333 334 336
325 324 328 331 332 331 335 334 340 339 338 343 343 340 344 343 344 345 346 343 342 343 344 343 342 339 340 341 341 339 335 333 328 327 325 324 323 323 321 323 328 330 330 330 330 330 329 329 329
322 320 322 327 329 327 332 337 340 341 341 343 341 340 344 346 345 345 346 345 345 345 344 342 341 341 338 336 342 333 337 334 329 327 326 326 326 325 324 320 318 317 318 323 325 325 325 326 326
321 320 320 328 333 331 329 333 339 341 341 341 344 344 345 345 344 342 341 339 341 341 343 340 342 342 343 333 334 336 331 329 328 328 327 327 326 325 324 323 322 321 318 318 317 317 320 321 321
321 322 325 330 333 331 327 334 338 341 341 340 339 344 344 344 340 338 337 338 338 342 340 342 339 341 332 329 329 329 327 328 328 328 327 327 325 325 324 324 325 324 323 321 319 319 318 318 319
320 321 324 329 328 331 329 332 338 338 342 342 344 344 342 342 339 331 336 337 339 341 341 340 340 333 330 328 327 328 328 327 327 327 326 326 326 326 326 326 325 324 323 323 322 321 321 321 319
323 322 323 324 328 329 328 330 334 333 343 344 343 343 341 340 337 332 333 336 340 341 338 335 339 335 330 328 328 327 327 328 328 326 325 326 327 326 324 326 325 324 323 322 323 322 321 320 320
323 321 320 322 327 327 331 331 330 336 343 343 343 342 342 340 335 333 334 338 340 341 339 325 321 327 329 327 322 323 323 322 323 324 325 326 327 326 324 325 325 324 323 322 322 322 321 321 321
319 318 319 318 325 328 324 325 325 337 341 340 341 340 340 339 334 334 333 333 335 338 337 323 322 321 323 320 322 322 322 323 325 326 327 328 327 326 324 322 323 325 325 324 324 323 322 322 321
316 321 321 323 323 326 323 326 326 335 340 337 339 339 339 339 333 333 335 331 332 334 332 326 323 322 324 325 323 327 329 329 328 330 331 330 325 320 319 319 320 321 323 324 324 323 322 321 321
322 323 322 322 321 319 321 323 321 331 336 337 337 338 340 339 334 332 333 331 333 332 331 329 328 326 326 324 329 332 333 332 332 325 319 316 313 312 313 314 315 315 315 316 317 318 318 318 316
323 323 325 324 321 321 320 320 319 326 336 336 336 336 338 338 334 335 331 331 332 332 332 331 329 328 327 330 333 333 333 332 323 318 314 313 312 314 315 315 315 313 313 314 315 315 315 314 315
322 323 322 323 322 321 321 324 324 327 335 336 336 335 336 337 335 332 333 332 332 332 331 330 329 328 331 333 332 332 329 321 318 315 315 313 314 316 316 315 314 313 313 314 315 316 316 316 315
323 324 324 324 323 321 320 325 324 328 334 336 336 335 335 335 335 333 334 331 331 332 333 331 330 332 333 331 329 323 319 316 316 315 314 313 316 316 314 312 311 311 311 313 313 313 313 313 312
325 324 326 326 323 324 319 324 323 323 329 334 335 335 335 336 335 333 334 330 330 331 333 332 333 333 332 323 321 319 317 317 315 314 314 315 316 315 313 312 311 310 310 312 312 312 312 311 311
325 325 323 323 323 319 320 321 322 322 325 328 334 336 336 336 335 335 335 331 331 330 333 333 333 331 323 320 319 318 317 315 314 314 315 316 315 313 312 311 311 310 310 311 312 312 312 312 311
323 323 320 319 317 320 320 323 324 322 324 323 323 333 336 336 336 334 333 333 331 331 334 333 330 322 320 319 318 317 315 314 314 315 315 314 313 312 312 311 310 309 309 310 312 312 312 311 311
321 319 321 321 322 323 319 323 321 321 322 322 326 331 333 334 335 333 331 331 333 332 330 326 322 321 319 318 317 315 314 315 315 315 314 313 312 311 311 310 309 308 309 310 310 310 310 310 310
322 320 320 325 322 320 321 324 322 321 322 323 329 330 331 334 333 333 331 331 331 329 324 322 320 319 318 316 315 315 315 315 315 314 313 312 311 310 309 308 308 308 308 308 309 310 310 310 310
325 323 319 319 320 321 320 323 322 322 322 321 326 330 329 330 331 331 331 331 326 323 321 320 319 317 315 315 314 314 314 315 314 312 312 311 310 308 308 307 308 308 308 308 309 309 310 309 309
325 321 324 320 327 327 322 324 323 323 323 321 322 324 326 328 328 330 329 325 322 321 319 318 316 316 315 314 313 313 314 313 311 308 308 308 308 308 309 309 309 309 309 309 308 308 308 308 308
326 323 319 318 320 323 324 322 319 320 320 319 321 322 322 323 323 324 324 322 321 319 318 317 316 315 314 312 313 313 312 311 309 307 307 308 309 309 309 309 309 309 309 308 308 308 308 308 308
324 324 318 320 322 321 319 320 319 318 320 321 321 321 322 322 322 321 321 319 318 317 317 316 316 315 312 313 313 312 311 310 308 307 308 309 310 310 310 310 308 308 308 307 307 307 307 307 307
Wind_Speed
18 17 3 3 5 6 3 3 0 5 4 4 18 4 5 2 2 2 16 11 12 12 14 14 12 10 9 8 8 8 8 9 9 10 10 10 10 10 9 9 9 10 10 10 10 10 9 7 5
20 14 1 2 5 5 3 1 2 2 10 22 16 14 4 1 4 10 14 10 10 11 14 13 11 10 8 7 7 7 7 7 7 8 8 8 8 8 8 9 9 10 10 10 10 10 10 9 7
17 10 3 4 4 1 3 4 7 14 24 8 7 11 4 3 9 11 14 10 12 11 12 11 9 8 7 6 5 5 5 5 6 6 6 6 5 6 7 8 8 8 9 10 11 11 10 9 9
8 3 5 4 1 2 7 7 17 11 11 8 14 6 7 6 10 12 15 13 13 11 11 11 9 7 5 5 4 4 3 4 5 5 4 5 6 6 7 8 9 9 9 9 10 9 9 9 9
11 3 4 2 1 2 3 19 17 6 5 12 11 5 5 12 10 12 10 7 6 10 9 10 9 7 5 4 3 3 3 4 5 5 5 5 6 8 7 8 8 8 9 9 9 9 9 9 8
4 4 4 2 4 3 4 28 15 5 15 13 17 12 5 10 9 10 11 8 7 10 11 11 9 7 6 4 4 5 4 6 5 4 4 4 5 5 6 7 5 7 8 7 8 8 9 8 9
5 4 3 2 5 3 6 27 15 13 19 12 23 6 11 14 16 16 14 13 12 11 11 11 10 9 8 8 8 8 6 4 4 5 5 5 7 7 8 9 8 6 7 7 7 8 11 11 10
5 5 2 2 4 2 10 17 17 19 10 28 22 7 10 20 16 16 13 14 14 13 11 10 11 11 11 10 8 7 4 5 5 8 7 6 8 11 13 12 11 8 9 10 11 11 11 12 12
3 4 2 5 5 7 18 4 21 5 26 10 10 18 27 21 18 16 17 14 11 10 9 8 11 10 10 8 6 5 2 1 3 7 8 9 10 13 13 14 11 12 11 9 10 11 12 13 14
4 3 7 9 8 9 26 19 24 10 22 10 18 30 27 26 23 21 17 14 12 11 11 11 11 10 8 6 7 6 5 4 1 5 8 9 10 13 15 15 16 17 17 15 16 15 16 18 17
3 6 4 9 16 24 19 20 12 26 5 27 36 36 34 30 26 21 19 15 19 15 13 12 14 14 12 8 10 8 7 5 3 5 7 10 14 16 18 19 20 19 14 19 19 18 21 21 21
2 13 7 2 14 21 16 18 8 24 12 36 35 42 38 35 30 27 25 21 20 21 18 17 16 14 11 9 9 8 6 4 5 6 9 12 16 18 20 23 24 19 18 18 17 19 20 22 21
4 9 5 7 14 20 23 17 13 19 21 35 39 41 40 37 33 19 23 20 19 23 19 15 17 14 11 11 10 8 6 5 5 8 12 16 16 19 20 17 18 20 21 21 21 22 23 24 21
3 8 4 9 8 17 15 8 13 14 38 37 39 41 40 40 33 19 22 20 23 22 18 16 17 16 13 11 9 8 7 6 8 12 14 16 18 18 12 15 18 19 19 20 21 22 22 20 21
4 3 4 1 8 6 16 2 6 23 41 36 41 40 40 37 28 20 10 18 18 17 18 17 16 16 17 13 9 8 10 13 14 14 18 21 23 21 18 16 18 21 20 21 21 25 25 25 26
5 6 5 6 2 4 5 4 3 33 38 31 37 33 38 37 31 20 1 12 16 15 17 15 16 14 13 10 8 10 13 15 15 18 22 23 24 26 26 24 22 21 21 20 22 24 25 27 25
9 3 4 4 7 4 2 3 14 34 31 21 28 30 35 37 32 19 4 13 16 17 19 18 15 13 10 8 11 12 14 15 17 20 23 26 29 28 25 22 19 19 22 23 22 21 22 23 26
2 1 4 5 7 9 6 3 7 25 33 30 30 32 36 36 36 26 15 16 18 16 18 16 14 11 10 11 13 12 14 16 18 22 25 28 29 29 27 27 29 28 28 27 28 29 28 29 29
1 5 3 2 6 4 4 6 8 4 17 20 25 31 34 35 34 22 20 14 15 20 18 16 14 13 12 14 15 16 15 21 21 25 26 31 29 26 27 27 28 28 26 22 25 29 27 26 20
4 5 4 4 6 4 7 8 7 8 8 23 28 29 33 35 30 24 18 16 15 20 21 19 18 16 13 16 16 17 19 23 27 29 31 31 29 26 27 29 28 26 24 20 16 15 13 13 14
4 4 1 2 3 3 6 5 6 6 5 10 16 21 25 26 26 24 19 18 20 21 23 23 20 17 19 15 15 17 23 25 27 28 29 29 26 27 30 27 26 25 19 16 17 17 17 18 19
3 2 2 4 3 2 3 3 4 4 2 4 10 16 21 22 23 23 22 22 24 22 24 24 19 23 20 14 17 21 24 24 24 26 26 23 24 29 28 26 25 24 18 18 15 16 15 13 13
3 2 3 2 1 5 8 5 5 2 1 4 11 17 20 21 23 20 20 24 26 15 26 24 25 20 14 16 20 23 23 23 24 24 23 22 26 25 23 24 27 24 19 16 15 16 16 15 13
2 3 7 4 3 4 3 4 3 2 5 3 6 17 18 16 17 16 16 18 22 20 20 22 16 14 15 19 21 21 23 24 24 21 22 25 24 22 26 29 28 26 23 16 13 15 14 14 16
9 8 5 6 6 3 6 4 7 4 3 7 10 13 14 12 14 13 15 15 17 18 18 16 16 16 18 19 19 21 22 19 19 20 22 22 23 28 30 33 32 24 19 18 17 20 22 20 21
4 5 5 1 1 5 5 2 4 2 2 6 9 11 9 9 11 14 17 17 15 15 16 16 16 17 16 17 19 20 16 17 18 21 24 25 28 30 29 31 22 21 19 19 20 21 23 24 24
1 4 3 6 2 2 3 2 3 1 2 6 9 10 10 13 14 15 18 16 14 16 16 15 15 14 15 18 22 20 18 20 24 27 27 29 30 24 21 19 18 18 18 21 24 27 26 21 18
3 5 3 4 0 2 4 4 5 6 3 1 8 13 14 16 15 16 16 18 17 16 14 13 13 14 18 23 23 21 21 24 28 29 30 20 19 20 20 20 21 24 23 23 21 20 14 13 14
3 2 6 4 4 4 1 6 7 9 10 9 11 15 18 16 15 18 19 18 17 15 12 11 13 17 22 23 21 23 25 26 26 29 18 18 22 22 20 20 22 21 21 17 18 11 11 10 10
2 3 4 5 4 2 4 7 3 7 8 11 17 14 10 9 12 15 15 13 12 10 10 13 16 21 22 22 25 25 27 30 23 23 18 21 24 22 20 17 17 18 16 15 13 10 9 9 9
Wind_Direction
357 353 2 132 57 63 10 339 57 125 117 127 157 159 159 127 184 196 146 146 149 154 146 155 159 155 145 131 117 102 86 75 66 61 52 48 44 39 34 31 26 21 18 16 16 18 19 23 26
351 358 50 54 82 59 303 13 169 145 123 119 113 127 90 67 104 125 151 150 153 157 151 154 158 154 146 134 119 100 87 76 66 58 48 37 31 26 18 15 13 10 6 3 2 3 3 1 2
354 351 62 82 91 176 141 127 146 124 125 124 112 97 87 93 122 129 134 142 158 161 153 151 157 155 144 130 110 94 82 69 54 45 38 24 18 15 12 7 0 360 358 357 356 352 349 346 345
6 349 67 83 260 270 137 160 137 140 114 125 113 73 93 120 127 135 131 129 141 156 157 157 156 151 141 128 114 93 66 45 43 38 34 20 17 18 14 15 9 7 7 7 359 348 337 330 327
345 32 48 21 157 143 143 153 153 158 108 135 130 121 102 153 140 125 128 141 140 157 157 160 153 146 138 121 103 87 67 52 50 56 53 40 39 39 27 9 6 6 11 2 350 339 326 315 310
16 30 16 336 332 158 166 161 167 143 142 138 126 116 121 150 154 137 96 112 128 147 150 152 148 144 141 136 125 109 100 94 74 55 27 10 14 356 16 12 358 357 357 342 329 334 332 314 298
102 87 251 156 289 84 158 162 156 171 145 155 142 112 146 150 127 126 118 107 116 129 134 137 142 143 146 138 130 124 115 84 56 33 2 351 4 8 349 345 351 347 333 328 329 327 329 327 312
297 99 140 260 231 133 141 152 180 169 162 150 149 160 157 154 145 144 145 131 128 128 130 133 130 131 135 136 137 139 132 92 57 33 23 354 353 0 354 352 334 322 320 318 316 325 327 324 328
195 60 218 226 199 165 160 146 181 206 144 143 186 162 153 152 159 157 161 151 144 146 147 150 144 136 137 131 142 168 169 143 72 32 18 8 5 359 354 342 331 321 316 322 320 314 315 320 320
128 138 242 198 189 164 173 180 181 135 154 122 136 139 159 166 173 173 168 167 170 187 179 165 174 171 169 171 183 201 229 231 14 11 0 354 342 338 345 347 343 333 316 309 305 305 307 309 311
188 206 232 215 195 161 164 186 194 140 206 155 149 153 165 171 171 177 165 192 197 190 197 204 194 199 211 213 214 211 224 243 310 339 343 333 324 324 325 323 325 331 324 318 307 311 309 314 315
279 252 222 230 178 157 173 165 126 170 183 170 160 165 170 173 175 185 194 184 205 197 187 199 213 212 209 200 201 206 226 261 309 312 314 308 307 308 313 318 320 321 314 315 302 309 310 317 314
200 276 222 259 175 184 167 174 177 205 156 165 165 173 176 179 183 197 197 201 203 199 196 197 189 189 190 185 190 203 241 277 307 306 305 300 300 301 306 309 308 307 308 305 299 301 302 303 306
297 323 196 154 179 161 151 155 161 201 160 163 176 180 182 186 186 179 186 200 210 203 207 206 195 197 199 201 224 237 243 262 271 280 283 288 292 297 298 295 290 288 283 277 283 290 293 288 295
298 217 0 126 162 147 130 51 192 153 162 172 187 185 185 188 191 181 189 212 217 204 193 192 196 198 208 207 220 244 265 276 280 279 288 291 293 297 301 287 283 278 271 270 272 281 283 287 289
18 43 5 336 71 116 44 225 209 162 164 178 187 185 189 188 193 175 76 241 233 213 195 198 196 199 204 218 244 265 278 286 292 301 301 297 300 302 305 302 291 281 276 275 274 279 278 285 284
19 9 349 355 39 129 74 265 71 169 169 168 180 185 191 191 189 180 212 236 234 218 212 205 209 214 224 247 267 281 300 298 299 303 306 310 313 313 311 306 298 288 281 279 278 279 278 279 276
273 63 24 40 328 56 27 22 54 166 174 169 177 187 196 198 200 203 227 230 222 222 211 218 240 237 238 260 270 297 304 304 298 310 315 315 314 311 309 306 299 294 289 282 281 281 281 287 292
211 113 104 327 335 80 20 7 355 89 135 144 174 192 199 203 201 217 226 220 218 215 219 230 243 238 256 272 281 294 301 308 310 314 323 325 325 317 315 315 314 312 305 296 283 280 285 288 289
195 108 3 328 349 69 47 33 15 56 152 180 180 195 203 210 211 216 223 226 221 210 221 229 238 245 260 280 290 294 308 309 316 320 325 328 324 319 316 315 311 306 300 294 300 294 289 287 287
25 79 11 221 343 45 98 16 11 19 57 193 181 198 205 212 213 216 225 230 224 219 220 230 235 246 259 292 294 296 312 313 315 321 324 325 321 317 317 316 313 308 302 288 281 280 283 282 287
53 257 243 265 87 201 53 211 358 20 351 289 203 205 212 213 215 220 225 225 224 230 231 233 246 259 280 281 288 309 313 310 320 321 321 318 313 315 315 314 318 320 306 279 284 287 293 294 293
220 353 33 13 92 92 346 79 263 180 88 258 238 224 221 217 219 226 229 228 214 247 232 245 252 270 268 277 302 308 308 316 318 316 314 308 312 314 320 321 322 318 311 298 285 287 289 288 293
29 16 42 48 54 61 267 123 257 226 169 223 243 224 216 209 215 224 229 231 230 234 235 246 258 261 274 296 299 304 309 313 313 310 309 315 322 318 323 321 318 311 302 297 285 284 284 286 288
57 46 357 12 12 244 325 55 236 258 184 178 180 190 182 194 212 219 218 208 207 220 238 240 255 273 285 287 293 301 307 303 305 312 318 320 318 321 318 316 314 306 301 294 285 285 285 285 285
66 108 135 45 303 280 336 136 259 246 152 150 151 145 165 190 200 215 212 211 231 239 233 243 260 271 273 286 300 308 299 301 311 314 315 314 315 316 316 317 311 305 297 293 294 291 289 289 285
133 41 173 105 12 42 290 320 356 104 185 131 149 171 172 178 199 210 215 226 217 222 235 252 260 265 286 307 315 313 310 313 313 315 311 314 316 323 326 326 322 314 303 293 292 296 292 288 291
94 154 38 14 88 288 304 284 234 229 208 228 140 157 167 187 199 201 208 206 218 226 242 248 267 296 310 316 319 319 317 315 319 318 313 324 333 326 318 310 310 310 304 301 303 304 291 289 289
12 32 55 111 132 172 224 269 216 209 196 194 182 158 163 168 177 190 203 213 225 227 244 273 293 307 319 325 326 323 324 326 319 324 327 323 323 321 317 311 314 317 314 312 309 301 301 293 293
177 161 124 119 249 196 158 269 301 254 204 180 185 187 178 186 187 190 192 209 221 241 269 293 312 324 328 330 330 329 328 327 323 328 322 322 324 324 322 321 324 329 322 314 309 303 310 298 276